Time,TemperatureF,DewpointF,PressureIn,WindDirection,WindDirectionDegrees,WindSpeedMPH,WindSpeedGustMPH,Humidity,HourlyPrecipIn,Conditions,Clouds,dailyrainin,SolarRadiationWatts/m^2,SoftwareType,DateUTC
2013-07-20 00:01:00,53.0,51.0,30.12,NNE,15,13.0,22.0,93,0.00,,,0.00,0.000000,,2013-07-20 07:01:00,
2013-07-20 00:12:00,52.0,50.0,30.12,NNE,12,12.0,19.0,92,0.00,,,0.00,0.000000,,2013-07-20 07:12:00,
2013-07-20 00:22:00,52.0,50.0,30.12,North,360,13.0,18.0,92,0.00,,,0.00,0.000000,,2013-07-20 07:22:00,
2013-07-20 00:33:00,52.0,50.0,30.12,North,5,14.0,20.0,94,0.00,,,0.00,0.000000,,2013-07-20 07:33:00,
2013-07-20 00:44:00,52.0,50.0,30.12,North,5,14.0,20.0,94,0.00,,,0.00,0.000000,,2013-07-20 07:44:00,
2013-07-20 00:54:00,51.0,49.0,30.12,North,4,13.0,16.0,92,0.00,,,0.00,0.000000,,2013-07-20 07:54:00,
2013-07-20 01:01:00,51.0,49.0,30.13,NNE,12,10.0,15.0,93,0.00,,,0.00,0.000000,,2013-07-20 08:01:00,
2013-07-20 01:11:00,51.0,49.0,30.13,NNE,12,10.0,15.0,93,0.00,,,0.00,0.000000,,2013-07-20 08:11:00,
2013-07-20 01:22:00,51.0,49.0,30.13,NNE,12,10.0,15.0,93,0.00,,,0.00,0.000000,,2013-07-20 08:22:00,
2013-07-20 01:32:00,51.0,49.0,30.12,North,4,11.0,17.0,93,0.00,,,0.00,0.000000,,2013-07-20 08:32:00,
2013-07-20 01:44:00,51.0,49.0,30.13,NNE,15,13.0,17.0,93,0.00,,,0.00,0.000000,,2013-07-20 08:44:00,
2013-07-20 01:52:00,51.0,49.0,30.12,NNE,16,11.0,16.0,93,0.00,,,0.00,0.000000,,2013-07-20 08:52:00,
2013-07-20 02:01:00,51.0,49.0,30.12,NNE,18,12.0,17.0,93,0.00,,,0.00,0.000000,,2013-07-20 09:01:00,
2013-07-20 02:11:00,51.0,49.0,30.12,NNE,18,12.0,17.0,93,0.00,,,0.00,0.000000,,2013-07-20 09:11:00,
2013-07-20 02:22:00,52.0,50.0,30.12,NNE,20,13.0,19.0,94,0.00,,,0.00,0.000000,,2013-07-20 09:22:00,
2013-07-20 02:33:00,51.0,49.0,30.12,North,9,12.0,18.0,93,0.00,,,0.00,0.000000,,2013-07-20 09:33:00,
2013-07-20 02:43:00,51.0,49.0,30.12,North,9,12.0,18.0,93,0.00,,,0.00,0.000000,,2013-07-20 09:43:00,
2013-07-20 02:53:00,52.0,50.0,30.12,North,8,12.0,22.0,94,0.00,,,0.00,0.000000,,2013-07-20 09:53:00,
2013-07-20 03:01:00,51.0,49.0,30.12,NNE,13,12.0,16.0,94,0.00,,,0.00,0.000000,,2013-07-20 10:01:00,
2013-07-20 03:11:00,51.0,49.0,30.12,NNE,13,12.0,16.0,94,0.00,,,0.00,0.000000,,2013-07-20 10:11:00,
2013-07-20 03:21:00,52.0,50.0,30.11,NNE,21,13.0,18.0,94,0.00,,,0.00,0.000000,,2013-07-20 10:21:00,
2013-07-20 03:32:00,51.0,49.0,30.11,North,8,12.0,16.0,94,0.00,,,0.00,0.000000,,2013-07-20 10:32:00,
2013-07-20 03:42:00,51.0,49.0,30.11,North,8,12.0,16.0,94,0.00,,,0.00,0.000000,,2013-07-20 10:42:00,
2013-07-20 03:52:00,51.0,49.0,30.11,North,2,12.0,15.0,94,0.00,,,0.00,0.000000,,2013-07-20 10:52:00,
2013-07-20 04:01:00,50.0,48.0,30.11,NNE,19,10.0,14.0,94,0.00,,,0.00,0.000000,,2013-07-20 11:01:00,
2013-07-20 04:11:00,50.0,48.0,30.11,NNE,19,10.0,14.0,94,0.00,,,0.00,0.000000,,2013-07-20 11:11:00,
2013-07-20 04:22:00,50.0,48.0,30.11,NNE,18,10.0,14.0,94,0.00,,,0.00,0.000000,,2013-07-20 11:22:00,
2013-07-20 04:32:00,51.0,49.0,30.11,North,7,11.0,17.0,94,0.00,,,0.00,0.000000,,2013-07-20 11:32:00,
2013-07-20 04:43:00,51.0,49.0,30.11,North,7,11.0,17.0,94,0.00,,,0.00,0.000000,,2013-07-20 11:43:00,
2013-07-20 04:52:00,50.0,48.0,30.11,NNE,18,10.0,15.0,94,0.00,,,0.00,0.000000,,2013-07-20 11:52:00,
2013-07-20 05:01:00,51.0,49.0,30.11,North,6,10.0,15.0,94,0.00,,,0.00,0.000000,,2013-07-20 12:01:00,
2013-07-20 05:11:00,51.0,49.0,30.11,North,6,10.0,15.0,94,0.00,,,0.00,0.000000,,2013-07-20 12:11:00,
2013-07-20 05:22:00,50.0,48.0,30.11,NNE,14,10.0,14.0,94,0.00,,,0.00,0.000000,,2013-07-20 12:22:00,
2013-07-20 05:32:00,50.0,49.0,30.10,NNE,15,12.0,15.0,95,0.00,,,0.00,0.000000,,2013-07-20 12:32:00,
2013-07-20 05:52:00,50.0,48.0,30.11,NNE,12,11.0,15.0,94,0.00,,,0.00,0.000000,,2013-07-20 12:52:00,
2013-07-20 06:01:00,50.0,48.0,30.11,NNE,12,11.0,15.0,94,0.00,,,0.00,0.000000,,2013-07-20 13:01:00,
2013-07-20 06:11:00,50.0,49.0,30.11,NNE,16,12.0,14.0,95,0.00,,,0.00,0.000000,,2013-07-20 13:11:00,
2013-07-20 06:22:00,53.0,52.0,30.11,NNE,19,10.0,17.0,95,0.00,,,0.00,0.000000,,2013-07-20 13:22:00,
2013-07-20 06:43:00,51.0,49.0,30.11,NNE,15,11.0,16.0,94,0.00,,,0.00,7.000000,,2013-07-20 13:43:00,
2013-07-20 06:53:00,52.0,51.0,30.11,North,6,12.0,16.0,95,0.00,,,0.00,11.000000,,2013-07-20 13:53:00,
2013-07-20 07:02:00,52.0,51.0,30.11,North,6,12.0,16.0,95,0.00,,,0.00,11.000000,,2013-07-20 14:02:00,
2013-07-20 07:11:00,51.0,49.0,30.11,North,11,12.0,15.0,94,0.00,,,0.00,16.000000,,2013-07-20 14:11:00,
2013-07-20 07:22:00,52.0,51.0,30.11,NNE,21,12.0,21.0,95,0.00,,,0.00,26.000000,,2013-07-20 14:22:00,
2013-07-20 07:32:00,52.0,51.0,30.11,NNE,21,12.0,21.0,95,0.00,,,0.00,26.000000,,2013-07-20 14:32:00,
2013-07-20 07:43:00,52.0,50.0,30.11,North,10,8.0,13.0,94,0.00,,,0.00,32.000000,,2013-07-20 14:43:00,
2013-07-20 07:53:00,51.0,50.0,30.11,NNE,17,12.0,15.0,95,0.00,,,0.00,33.000000,,2013-07-20 14:53:00,
2013-07-20 08:01:00,51.0,50.0,30.11,NNE,17,12.0,15.0,95,0.00,,,0.00,33.000000,,2013-07-20 15:01:00,
2013-07-20 08:11:00,52.0,50.0,30.11,North,10,10.0,16.0,94,0.00,,,0.00,49.000000,,2013-07-20 15:11:00,
2013-07-20 08:22:00,52.0,50.0,30.11,NNE,15,9.0,15.0,94,0.00,,,0.00,49.000000,,2013-07-20 15:22:00,
2013-07-20 08:33:00,51.0,49.0,30.11,NNE,20,9.0,15.0,94,0.00,,,0.00,72.000000,,2013-07-20 15:33:00,
2013-07-20 08:44:00,51.0,49.0,30.11,NNE,20,9.0,15.0,94,0.00,,,0.00,72.000000,,2013-07-20 15:44:00,
2013-07-20 08:53:00,52.0,50.0,30.12,North,9,11.0,15.0,94,0.00,,,0.00,91.000000,,2013-07-20 15:53:00,
2013-07-20 09:01:00,53.0,52.0,30.12,NNE,17,10.0,17.0,95,0.00,,,0.00,109.000000,,2013-07-20 16:01:00,
2013-07-20 09:11:00,53.0,52.0,30.12,NNE,17,10.0,17.0,95,0.00,,,0.00,109.000000,,2013-07-20 16:11:00,
2013-07-20 09:22:00,53.0,51.0,30.12,North,4,10.0,16.0,94,0.00,,,0.00,148.000000,,2013-07-20 16:22:00,
2013-07-20 09:43:00,52.0,50.0,30.12,North,3,9.0,14.0,93,0.00,,,0.00,123.000000,,2013-07-20 16:43:00,
2013-07-20 09:52:00,53.0,51.0,30.11,North,11,14.0,17.0,94,0.00,,,0.00,156.000000,,2013-07-20 16:52:00,
2013-07-20 10:02:00,52.0,50.0,30.11,North,10,12.0,16.0,93,0.00,,,0.00,172.000000,,2013-07-20 17:02:00,
2013-07-20 10:11:00,52.0,50.0,30.11,North,10,12.0,16.0,93,0.00,,,0.00,172.000000,,2013-07-20 17:11:00,
2013-07-20 10:22:00,52.0,50.0,30.11,North,10,12.0,16.0,93,0.00,,,0.00,172.000000,,2013-07-20 17:22:00,
2013-07-20 10:32:00,52.0,50.0,30.11,North,11,16.0,21.0,94,0.00,,,0.00,148.000000,,2013-07-20 17:32:00,
2013-07-20 10:43:00,53.0,51.0,30.11,North,358,13.0,18.0,93,0.00,,,0.00,265.000000,,2013-07-20 17:43:00,
2013-07-20 10:53:00,53.0,51.0,30.11,North,360,16.0,19.0,93,0.00,,,0.00,204.000000,,2013-07-20 17:53:00,
2013-07-20 11:01:00,53.0,51.0,30.11,North,10,14.0,17.0,92,0.00,,,0.00,292.000000,,2013-07-20 18:01:00,
2013-07-20 11:11:00,53.0,51.0,30.11,North,10,14.0,17.0,92,0.00,,,0.00,292.000000,,2013-07-20 18:11:00,
2013-07-20 11:23:00,53.0,51.0,30.11,NNE,13,10.0,15.0,92,0.00,,,0.00,258.000000,,2013-07-20 18:23:00,
2013-07-20 11:32:00,53.0,51.0,30.11,NNE,13,12.0,15.0,92,0.00,,,0.00,369.000000,,2013-07-20 18:32:00,
2013-07-20 11:43:00,53.0,51.0,30.11,NNE,13,12.0,15.0,92,0.00,,,0.00,369.000000,,2013-07-20 18:43:00,
2013-07-20 11:57:00,53.0,51.0,30.11,NNE,12,12.0,15.0,92,0.00,,,0.00,295.000000,,2013-07-20 18:57:00,
2013-07-20 12:02:00,53.0,51.0,30.11,NNE,15,12.0,16.0,92,0.00,,,0.00,278.000000,,2013-07-20 19:02:00,
2013-07-20 12:12:00,53.0,51.0,30.11,NNE,15,12.0,16.0,92,0.00,,,0.00,278.000000,,2013-07-20 19:12:00,
2013-07-20 12:23:00,53.0,51.0,30.11,NNE,31,11.0,17.0,92,0.00,,,0.00,285.000000,,2013-07-20 19:23:00,
2013-07-20 12:43:00,54.0,51.0,30.11,NNE,13,12.0,21.0,91,0.00,,,0.00,308.000000,,2013-07-20 19:43:00,
2013-07-20 13:03:00,55.0,52.0,30.10,North,6,11.0,18.0,90,0.00,,,0.00,489.000000,,2013-07-20 20:03:00,
2013-07-20 13:12:00,55.0,52.0,30.10,North,6,11.0,18.0,90,0.00,,,0.00,489.000000,,2013-07-20 20:12:00,
2013-07-20 13:32:00,55.0,52.0,30.09,NNE,25,13.0,18.0,90,0.00,,,0.00,494.000000,,2013-07-20 20:32:00,
2013-07-20 13:52:00,55.0,52.0,30.09,North,8,15.0,21.0,88,0.00,,,0.00,522.000000,,2013-07-20 20:52:00,
2013-07-20 14:02:00,56.0,53.0,30.09,NNE,33,13.0,17.0,89,0.00,,,0.00,519.000000,,2013-07-20 21:02:00,
2013-07-20 14:12:00,56.0,53.0,30.09,NNE,33,13.0,17.0,89,0.00,,,0.00,519.000000,,2013-07-20 21:12:00,
2013-07-20 14:43:00,57.0,53.0,30.09,NNE,13,12.0,16.0,87,0.00,,,0.00,603.000000,,2013-07-20 21:43:00,
2013-07-20 14:52:00,56.0,52.0,30.09,NNE,13,13.0,16.0,87,0.00,,,0.00,591.000000,,2013-07-20 21:52:00,
2013-07-20 15:02:00,56.0,52.0,30.09,NNE,13,13.0,16.0,87,0.00,,,0.00,591.000000,,2013-07-20 22:02:00,
2013-07-20 15:12:00,57.0,53.0,30.09,North,7,12.0,15.0,88,0.00,,,0.00,691.000000,,2013-07-20 22:12:00,
2013-07-20 15:22:00,58.0,54.0,30.08,NNE,13,12.0,18.0,86,0.00,,,0.00,649.000000,,2013-07-20 22:22:00,
2013-07-20 15:32:00,58.0,54.0,30.08,NNE,13,12.0,18.0,86,0.00,,,0.00,649.000000,,2013-07-20 22:32:00,
2013-07-20 15:52:00,57.0,53.0,30.08,NNE,25,11.0,16.0,86,0.00,,,0.00,664.000000,,2013-07-20 22:52:00,
2013-07-20 16:02:00,58.0,54.0,30.07,NNE,13,12.0,16.0,86,0.00,,,0.00,608.000000,,2013-07-20 23:02:00,
2013-07-20 16:13:00,59.0,54.0,30.07,North,11,11.0,16.0,85,0.00,,,0.00,770.000000,,2013-07-20 23:13:00,
2013-07-20 16:22:00,57.0,52.0,30.06,North,11,11.0,16.0,84,0.00,,,0.00,763.000000,,2013-07-20 23:22:00,
2013-07-20 16:33:00,57.0,52.0,30.06,North,11,11.0,16.0,84,0.00,,,0.00,763.000000,,2013-07-20 23:33:00,
2013-07-20 16:43:00,57.0,53.0,30.05,NNE,31,15.0,18.0,85,0.00,,,0.00,719.000000,,2013-07-20 23:43:00,
2013-07-20 16:53:00,59.0,54.0,30.05,North,5,15.0,22.0,85,0.00,,,0.00,684.000000,,2013-07-20 23:53:00,
2013-07-20 17:12:00,58.0,53.0,30.05,NNE,18,15.0,26.0,84,0.00,,,0.00,710.000000,,2013-07-21 00:12:00,
2013-07-20 17:43:00,59.0,54.0,30.05,NNE,17,14.0,21.0,84,0.00,,,0.00,580.000000,,2013-07-21 00:43:00,
2013-07-20 18:02:00,57.0,53.0,30.05,North,9,16.0,23.0,85,0.00,,,0.00,601.000000,,2013-07-21 01:02:00,
2013-07-20 18:11:00,57.0,53.0,30.04,North,4,16.0,23.0,87,0.00,,,0.00,531.000000,,2013-07-21 01:11:00,
2013-07-20 18:32:00,57.0,53.0,30.04,North,10,19.0,25.0,86,0.00,,,0.00,527.000000,,2013-07-21 01:32:00,
2013-07-20 18:44:00,-999.0,-99.9,30.04,North,9,15.0,22.0,-999,0.00,,,-99.99,,,2013-07-21 01:44:00,
2013-07-20 18:52:00,56.0,52.0,30.03,NNE,15,15.0,23.0,87,0.00,,,0.00,195.000000,,2013-07-21 01:52:00,
2013-07-20 19:02:00,56.0,52.0,30.03,NNE,15,15.0,23.0,87,0.00,,,0.00,195.000000,,2013-07-21 02:02:00,
2013-07-20 19:12:00,55.0,52.0,30.03,NNE,27,15.0,23.0,88,0.00,,,0.00,167.000000,,2013-07-21 02:12:00,
2013-07-20 19:22:00,55.0,52.0,30.03,NE,47,13.0,23.0,88,0.00,,,0.00,165.000000,,2013-07-21 02:22:00,
2013-07-20 19:33:00,55.0,52.0,30.03,NE,47,13.0,23.0,88,0.00,,,0.00,165.000000,,2013-07-21 02:33:00,
2013-07-20 19:43:00,55.0,52.0,30.03,North,9,15.0,22.0,88,0.00,,,0.00,121.000000,,2013-07-21 02:43:00,
2013-07-20 19:52:00,54.0,51.0,30.03,North,10,16.0,23.0,89,0.00,,,0.00,76.000000,,2013-07-21 02:52:00,
2013-07-20 20:02:00,54.0,51.0,30.03,North,10,16.0,23.0,89,0.00,,,0.00,76.000000,,2013-07-21 03:02:00,
2013-07-20 20:12:00,54.0,51.0,30.03,NNE,21,13.0,22.0,90,0.00,,,0.00,72.000000,,2013-07-21 03:12:00,
2013-07-20 20:32:00,54.0,51.0,30.03,NNE,19,13.0,22.0,90,0.00,,,0.00,26.000000,,2013-07-21 03:32:00,
2013-07-20 20:44:00,53.0,50.0,30.03,NNE,13,16.0,23.0,91,0.00,,,0.00,19.000000,,2013-07-21 03:44:00,
2013-07-20 20:52:00,53.0,50.0,30.03,NNE,18,15.0,23.0,91,0.00,,,0.00,7.000000,,2013-07-21 03:52:00,
2013-07-20 21:01:00,53.0,50.0,30.03,NNE,18,15.0,23.0,91,0.00,,,0.00,7.000000,,2013-07-21 04:01:00,
2013-07-20 21:11:00,53.0,50.0,30.03,NNE,17,16.0,21.0,91,0.00,,,0.00,0.000000,,2013-07-21 04:11:00,
2013-07-20 21:32:00,53.0,50.0,30.02,NNE,20,16.0,24.0,91,0.00,,,0.00,0.000000,,2013-07-21 04:32:00,
2013-07-20 21:43:00,52.0,50.0,30.03,NNE,17,18.0,24.0,92,0.00,,,0.00,0.000000,,2013-07-21 04:43:00,
2013-07-20 21:53:00,53.0,51.0,30.02,NNE,17,18.0,27.0,93,0.00,,,0.00,0.000000,,2013-07-21 04:53:00,
2013-07-20 22:01:00,53.0,51.0,30.02,NNE,17,18.0,27.0,93,0.00,,,0.00,0.000000,,2013-07-21 05:01:00,
2013-07-20 22:11:00,51.0,49.0,30.02,North,10,18.0,22.0,93,0.00,,,0.00,0.000000,,2013-07-21 05:11:00,
2013-07-20 22:32:00,51.0,49.0,30.02,North,2,16.0,22.0,94,0.00,,,0.00,0.000000,,2013-07-21 05:32:00,
2013-07-20 22:42:00,51.0,49.0,30.02,NNE,21,14.0,19.0,94,0.00,,,0.00,0.000000,,2013-07-21 05:42:00,
2013-07-20 22:52:00,50.0,48.0,30.03,North,1,14.0,18.0,94,0.00,,,0.00,0.000000,,2013-07-21 05:52:00,
2013-07-20 23:01:00,50.0,48.0,30.03,North,1,14.0,18.0,94,0.00,,,0.00,0.000000,,2013-07-21 06:01:00,
2013-07-20 23:11:00,50.0,48.0,30.03,NNE,24,15.0,18.0,94,0.00,,,0.00,0.000000,,2013-07-21 06:11:00,
2013-07-20 23:21:00,50.0,48.0,30.03,NNE,24,15.0,18.0,94,0.00,,,0.00,0.000000,,2013-07-21 06:21:00,
2013-07-20 23:32:00,50.0,49.0,30.03,North,11,17.0,23.0,95,0.00,,,0.00,0.000000,,2013-07-21 06:32:00,
2013-07-20 23:42:00,51.0,50.0,30.03,North,9,13.0,17.0,95,0.00,,,0.00,0.000000,,2013-07-21 06:42:00,
2013-07-20 23:52:00,51.0,50.0,30.03,North,9,13.0,17.0,95,0.00,,,0.00,0.000000,,2013-07-21 06:52:00,